This is the latest recevied weather packets stored in our database for station/object KE8RXN. If no packets are shown the sender has not sent any weather packets the latest 10 day(s).
| Time | Temp. | Humidity | Pressure | Rain* | Wind** | Luminosity | Snow |
|---|---|---|---|---|---|---|---|
| 1777159034 | 17.78° C | 65% | 1018.6 hPa | 0 mm | - | 37 W/m² | - |
| 1777158729 | 18.33° C | 65% | 1018.7 hPa | 0 mm | - | 57 W/m² | - |
| 1777158424 | 18.33° C | 64% | 1018.6 hPa | 0 mm | - | 39 W/m² | - |
| 1777158119 | 18.89° C | 63% | 1018.4 hPa | 0 mm | - | 52 W/m² | - |
| 1777157815 | 18.89° C | 61% | 1018.4 hPa | 0 mm | - | 66 W/m² | - |
| 1777157511 | 19.44° C | 60% | 1018.3 hPa | 0 mm | - | 118 W/m² | - |
| 1777157208 | 19.44° C | 61% | 1018.2 hPa | 0 mm | - | 108 W/m² | - |
| 1777156907 | 19.44° C | 59% | 1018.3 hPa | 0 mm | - | 113 W/m² | - |
| 1777156602 | 19.44° C | 60% | 1018 hPa | 0 mm | - | 100 W/m² | - |
| 1777156299 | 19.44° C | 59% | 1018 hPa | 0 mm | - | 244 W/m² | - |
| 1777155996 | 19.44° C | 60% | 1018.2 hPa | 0 mm | - | 141 W/m² | - |
| 1777155692 | 20° C | 59% | 1017.8 hPa | 0 mm | - | 177 W/m² | - |
| 1777155388 | 20° C | 58% | 1017.9 hPa | 0 mm | - | 304 W/m² | - |
| 1777155086 | 20° C | 58% | 1017.7 hPa | 0 mm | - | 128 W/m² | - |
| 1777154783 | 20.56° C | 56% | 1017.8 hPa | 0 mm | - | 183 W/m² | - |
| 1777154479 | 20.56° C | 56% | 1017.7 hPa | 0 mm | - | 200 W/m² | - |
| 1777154174 | 20.56° C | 56% | 1017.8 hPa | 0 mm | - | 288 W/m² | - |
| 1777153871 | 20.56° C | 57% | 1017.6 hPa | 0 mm | - | 312 W/m² | - |
| 1777153568 | 20° C | 56% | 1017.7 hPa | 0 mm | - | 206 W/m² | - |
| 1777153263 | 20° C | 57% | 1017.5 hPa | 0 mm | - | 321 W/m² | - |
| 1777152960 | 20° C | 57% | 1017.5 hPa | 0 mm | - | 162 W/m² | - |
| 1777152656 | 20° C | 56% | 1017.7 hPa | 0 mm | - | 314 W/m² | - |
| 1777152354 | 20.56° C | 55% | 1017.6 hPa | 0 mm | - | 360 W/m² | - |
| 1777152048 | 20° C | 56% | 1017.6 hPa | 0 mm | - | 449 W/m² | - |
| 1777151744 | 20.56° C | 54% | 1017.4 hPa | 0 mm | - | 482 W/m² | - |
* Rain latest hour (hover to see other rain measurements)
** Current wind speed in m/s (hover to see current wind gust speed)